This is the latest recevied weather packets stored in our database for station/object BM1CCR-13. If no packets are shown the sender has not sent any weather packets the latest 10 day(s).
| Time | Temp. | Humidity | Pressure | Rain* | Wind** | Luminosity | Snow |
|---|---|---|---|---|---|---|---|
| 1777795190 | 33.89° C | 56% | 998 hPa | 0 mm | - | - | - |
| 1777795175 | 33.89° C | 56% | 998.1 hPa | 0 mm | - | - | - |
| 1777794890 | 31.67° C | 64% | 997.9 hPa | 0 mm | - | - | - |
| 1777794875 | 31.67° C | 64% | 998.1 hPa | 0 mm | - | - | - |
| 1777794591 | 28.89° C | 73% | 998.1 hPa | 0 mm | - | - | - |
| 1777794576 | 28.89° C | 74% | 998.1 hPa | 0 mm | - | - | - |
| 1777794291 | 26.67° C | 78% | 998.1 hPa | 0 mm | - | - | - |
| 1777794276 | 26.67° C | 78% | 998.2 hPa | 0 mm | - | - | - |
| 1777793976 | 26.67° C | 79% | 998.2 hPa | 0 mm | - | - | - |
| 1777793676 | 26.67° C | 79% | 998.2 hPa | 0 mm | - | - | - |
| 1777793376 | 26.67° C | 77% | 998.2 hPa | 0 mm | - | - | - |
| 1777793091 | 26.67° C | 77% | 997.9 hPa | 0 mm | - | - | - |
| 1777793076 | 26.67° C | 77% | 998 hPa | 0 mm | - | - | - |
| 1777792776 | 26.67° C | 77% | 998 hPa | 0 mm | - | - | - |
| 1777792476 | 27.78° C | 75% | 998 hPa | 0 mm | - | - | - |
| 1777792176 | 27.78° C | 74% | 998 hPa | 0 mm | - | - | - |
| 1777791876 | 27.78° C | 73% | 998.2 hPa | 0 mm | - | - | - |
| 1777791591 | 27.78° C | 72% | 998.2 hPa | 0 mm | - | - | - |
| 1777791576 | 27.78° C | 72% | 998.3 hPa | 0 mm | - | - | - |
| 1777791276 | 27.78° C | 71% | 998.3 hPa | 0 mm | - | - | - |
| 1777790976 | 27.78° C | 72% | 998.4 hPa | 0 mm | - | - | - |
| 1777790676 | 27.78° C | 73% | 998.4 hPa | 0 mm | - | - | - |
| 1777790376 | 27.78° C | 75% | 998.3 hPa | 0 mm | - | - | - |
| 1777790076 | 27.78° C | 74% | 998.5 hPa | 0 mm | - | - | - |
| 1777789776 | 27.78° C | 76% | 998.6 hPa | 0 mm | - | - | - |
* Rain latest hour (hover to see other rain measurements)
** Current wind speed in m/s (hover to see current wind gust speed)